[[{"header":{"parameterUnit":"m.s-1","parameterCategory":2,"la1":30.2991,"la2":30.254,"lo1":-89.0895,"lo2":-89.0444,"dx":0.0017,"dy":0.0017,"nx":28,"ny":28,"refTime":"2022-12-02T09:00:00:Z","depth":"0","parameterNumber":2,"parameterNumberName":"U-component_of_CURRENTS"},"data":[0,0,0,0,0,0,0,0,0,0,0,0,0,0,0,0,0,0,0,0,0,0,0,0,0,0,0,0,0,0,0,0,0,0,0,0,0,0,0,0,0,0,0,0,0,0,0,0,0,0,0,0,0,0,0,0,0,0,0.1644,0.1644,0,0.1677,0.1677,0.1678,0.1702,0.1702,0.1702,0.1702,0.1781,0.1783,0.1786,0,0,0,0,0,0,0,0,0,0,0,0,0,0.1695,0.1694,0.1644,0.1644,0.1644,0.1677,0.1678,0.1678,0.1702,0.1702,0.1702,0.1702,0.1781,0.1783,0.1786,0,0,0,0,0,0,0,0,0,0,0,0,0,0.1698,0.1693,0.1644,0.1658,0.1659,0.1677,0.1678,0.1678,0.1702,0.1702,0.1702,0.1702,0.178,0.1783,0.1786,0.1809,0,0,0.1796,0.1798,0,0,0,0,0,0,0,0,0.1697,0.1696,0.1656,0.1657,0.1658,0.1683,0.1724,0.1723,0.1702,0.1689,0.1702,0.1702,0.1751,0.1756,0.1767,0.1813,0.1816,0.1796,0.1798,0.18,0.1801,0,0,0,0,0,0,0,0.1697,0.1695,0.166,0.1656,0.1657,0.1694,0.1694,0.1725,0.1724,0.169,0.1691,0.169,0.1752,0.1763,0.1769,0.1817,0.1796,0.1799,0.1801,0.1803,0.1903,0.1904,0,0,0,0,0,0,0.1681,0.1694,0.1659,0.1661,0.1674,0.1693,0.1693,0.1678,0.1722,0.1728,0.169,0.1691,0.1758,0.1765,0.1772,0.1831,0.18,0.1803,0.1805,0.1903,0.1903,0.1904,0,0,0,0,0,0,0.1682,0.1677,0.1658,0.1677,0.1677,0.1691,0.1675,0.1678,0.169,0.1721,0.1728,0.1698,0.1758,0.1767,0.1817,0.1833,0.1804,0.1807,0.1902,0.1903,0.1904,0.1931,0,0,0,0,0,0,0.1683,0.1677,0.1677,0.1675,0.1675,0.1682,0.1674,0.1679,0.1688,0.169,0.173,0.1737,0.1759,0.1812,0.182,0.1837,0.181,0.1901,0.1902,0.1904,0.1929,0.1932,0.1936,0,0,0,0,0,0.1685,0.1691,0.1677,0.1674,0.1668,0.1682,0.1687,0.1699,0.1688,0.1707,0.1734,0.1736,0.1825,0.1816,0.1825,0.1843,0.19,0.1902,0.1903,0.1927,0.1932,0.1936,0,0,0,0,0,0,0.1739,0.1693,0.1678,0.1676,0.168,0.1686,0.1706,0.1699,0.1732,0.1735,0.1756,0.1767,0.1816,0.1824,0.1812,0.1874,0.1859,0.1862,0.1873,0.1878,0.1881,0.1889,0.1813,0,0,0,0,0,0.174,0.1721,0.1699,0.1705,0.17,0.1698,0.1707,0.1707,0.1727,0.174,0.1766,0.1793,0.1829,0.1849,0.1883,0.192,0.1949,0.1934,0.1937,0.194,0.1952,0.2026,0.2038,0.191,0.1909,0.1909,0,0,0.1766,0.1739,0.1732,0.1713,0.1714,0.1722,0.1705,0.1718,0.1735,0.1745,0.1791,0.1813,0.1843,0.1891,0.1911,0.19,0.1987,0.1942,0.1944,0.1955,0.2029,0.2042,0.2053,0.1911,0.191,0.191,0,0,0.1804,0.1778,0.177,0.1768,0.1757,0.1754,0.1752,0.1753,0.1766,0.1802,0.1816,0.1852,0.1896,0.193,0.1948,0.1989,0.2007,0.1985,0.201,0.2081,0.2093,0.2103,0.2141,0.2155,0.1983,0.1983,0.1983,0,0.1837,0.1813,0.1782,0.1781,0.1784,0.1763,0.1773,0.1787,0.1811,0.1831,0.1821,0.19,0.1919,0.1984,0.1993,0.1999,0.2031,0.1992,0.2087,0.2099,0.2109,0.2146,0.2161,0.1984,0.1984,0.1984,0.1984,0,0.1861,0.185,0.1854,0.1827,0.1838,0.1845,0.1842,0.1861,0.186,0.1874,0.1932,0.1965,0.2012,0.2014,0.2016,0.2093,0.2088,0.2088,0.208,0.2124,0.2159,0.2174,0.1986,0.1986,0.1985,0.1985,0,0,0.189,0.1868,0.1867,0.1861,0.1855,0.1862,0.1895,0.1915,0.1935,0.1967,0.2012,0.2062,0.2073,0.2095,0.2104,0.215,0.2238,0.2146,0.2149,0.2188,0.2381,0.2323,0.2333,0.226,0.2263,0.2266,0.2371,0,0.1909,0.1908,0.1898,0.1915,0.1908,0.1911,0.1941,0.1967,0.1985,0.203,0.2068,0.2116,0.2106,0.2126,0.218,0.2229,0.2282,0.2208,0.2329,0.2332,0.228,0.2351,0.2231,0.231,0.2386,0.2388,0.239,0,0.1913,0.1909,0.1921,0.1928,0.1928,0.1947,0.1978,0.2004,0.2062,0.2083,0.2142,0.2171,0.2253,0.2228,0.236,0.2315,0.2356,0.2384,0.2389,0.2339,0.2303,0.2281,0.2335,0.2259,0.2414,0.2412,0.241,0,0.1909,0.1919,0.1924,0.1927,0.1942,0.1962,0.1978,0.2023,0.2043,0.2123,0.2151,0.2251,0.2303,0.2385,0.2445,0.2416,0.2578,0.2548,0.2536,0.2531,0.2455,0.2438,0.2455,0.2654,0.2654,0.2653,0.2653,0,0.1904,0.1902,0.1923,0.1922,0.1938,0.196,0.1989,0.2018,0.2072,0.2107,0.218,0.2234,0.2349,0.2443,0.2489,0.2566,0.2628,0.2563,0.257,0.2456,0.2439,0.2388,0.2347,0.2657,0.2657,0.2656,0.2655,0,0.1869,0.1884,0.1885,0.1916,0.1926,0.1936,0.1972,0.1994,0.2051,0.2103,0.2133,0.2251,0.2373,0.2471,0.2609,0.2616,0.2612,0.2703,0.2543,0.2529,0.2405,0.2369,0.2338,0.2271,0.27,0.27,0.2699,0,0.1841,0.1839,0.1869,0.1875,0.1883,0.1906,0.192,0.1973,0.1998,0.2105,0.2133,0.227,0.235,0.2527,0.2587,0.2676,0.26,0.2597,0.2516,0.2402,0.2369,0.2279,0.2219,0.2423,0.242,0.2418,0.2416,0,0.1786,0.1801,0.1809,0.1824,0.1841,0.1856,0.1887,0.1899,0.197,0.2018,0.2104,0.2179,0.2346,0.2393,0.2508,0.2541,0.2442,0.2551,0.2495,0.2209,0.2054,0.199,0.2331,0.2396,0.2398,0.24,0.2401,0.2401,0.1743,0.1737,0.1758,0.1762,0.178,0.1792,0.1784,0.1827,0.1854,0.1908,0.2034,0.2109,0.2211,0.235,0.2371,0.2306,0.2313,0.2225,0.221,0.2144,0.2017,0.2294,0.2325,0.2327,0.2328,0.2329,0.233,0,0.1671,0.168,0.1692,0.1696,0.1686,0.1723,0.1743,0.1723,0.1724,0.1819,0.1886,0.1981,0.2013,0.2078,0.2064,0.1984,0.1903,0.1922,0.1772,0.1746,0.2055,0.1977,0.1859,0.1859,0.1859,0.1859,0.1859,0.1859,0.1632,0.1618,0.1626,0.1593,0.1597,0.1563,0.1559,0.1543,0.1581,0.1609,0.1657,0.1759,0.1841,0.184,0.1758,0.1719,0.1594,0.1507,0.1531,0.1742,0.1769,0.1794,0.1713,0.1541,0.154,0.1139,0.1135,0.1133]},{"header":{"parameterUnit":"m.s-1","parameterCategory":2,"la1":30.2991,"la2":30.254,"lo1":-89.0895,"lo2":-89.0444,"dx":0.0017,"dy":0.0017,"nx":28,"ny":28,"refTime":"2022-12-02T09:00:00:Z","depth":"0","parameterNumber":3,"parameterNumberName":"V-component_of_CURRENTS"},"data":[0,0,0,0,0,0,0,0,0,0,0,0,0,0,0,0,0,0,0,0,0,0,0,0,0,0,0,0,0,0,0,0,0,0,0,0,0,0,0,0,0,0,0,0,0,0,0,0,0,0,0,0,0,0,0,0,0,0,-0.0091,-0.0091,0,-0.0158,-0.0158,-0.0159,-0.0227,-0.0228,-0.0229,-0.023,-0.0303,-0.0304,-0.0305,0,0,0,0,0,0,0,0,0,0,0,0,0,0.0029,0.0027,-0.0091,-0.0091,-0.0092,-0.0157,-0.0158,-0.0159,-0.0227,-0.0228,-0.0229,-0.0231,-0.0302,-0.0304,-0.0305,0,0,0,0,0,0,0,0,0,0,0,0,0,-0.0028,0.0027,-0.009,-0.0135,-0.014,-0.0157,-0.0158,-0.0159,-0.0227,-0.0228,-0.023,-0.0231,-0.0302,-0.0304,-0.0305,-0.0284,0,0,-0.031,-0.031,0,0,0,0,0,0,0,0,-0.0024,-0.0032,-0.0127,-0.0132,-0.0137,-0.0186,-0.0143,-0.0202,-0.0226,-0.0193,-0.023,-0.0232,-0.0264,-0.0269,-0.0276,-0.0287,-0.029,-0.031,-0.0311,-0.0311,-0.0312,0,0,0,0,0,0,0,-0.002,-0.0029,-0.0116,-0.0128,-0.0134,-0.0134,-0.0144,-0.0154,-0.0218,-0.0196,-0.0201,-0.0209,-0.0267,-0.0275,-0.0279,-0.0291,-0.031,-0.0311,-0.0312,-0.0312,-0.0325,-0.0325,0,0,0,0,0,0,-0.0015,-0.0026,-0.0114,-0.0118,-0.0084,-0.0135,-0.0146,-0.0168,-0.0218,-0.0228,-0.0208,-0.0212,-0.0271,-0.0277,-0.0281,-0.0279,-0.0311,-0.0313,-0.0313,-0.0326,-0.0325,-0.0324,0,0,0,0,0,0,-0.0013,-0.0023,-0.0111,-0.0073,-0.0085,-0.0136,-0.016,-0.0169,-0.0181,-0.0228,-0.0237,-0.0211,-0.0273,-0.0279,-0.0288,-0.0282,-0.0313,-0.0315,-0.0326,-0.0325,-0.0325,-0.0261,0,0,0,0,0,0,-0.0009,-0.0022,-0.0022,-0.0073,-0.0087,-0.0117,-0.0159,-0.0169,-0.0184,-0.019,-0.0233,-0.0242,-0.0275,-0.0286,-0.029,-0.0284,-0.0316,-0.0327,-0.0326,-0.0325,-0.0264,-0.0258,-0.0253,0,0,0,0,0,-0.0005,0.0002,-0.0022,-0.0031,-0.009,-0.0116,-0.0122,-0.0162,-0.0182,-0.0179,-0.021,-0.024,-0.0283,-0.0286,-0.0291,-0.0286,-0.0328,-0.0326,-0.0325,-0.0266,-0.0259,-0.0254,0,0,0,0,0,0,0.0071,-0.0006,-0.0033,-0.0046,-0.0077,-0.0128,-0.0123,-0.0153,-0.0173,-0.0178,-0.0225,-0.0235,-0.0245,-0.0267,-0.027,-0.0287,-0.0313,-0.0312,-0.0267,-0.026,-0.0255,-0.0216,-0.0317,0,0,0,0,0,0.0084,0.0057,-0.0002,-0.0008,-0.0023,-0.007,-0.0081,-0.0112,-0.0143,-0.0155,-0.0187,-0.0218,-0.0241,-0.0252,-0.0276,-0.0273,-0.0262,-0.0276,-0.027,-0.0265,-0.0237,-0.0207,-0.0196,-0.032,-0.032,-0.032,0,0,0.011,0.0069,0.0054,0.0005,-0.0022,-0.004,-0.008,-0.0095,-0.0102,-0.0156,-0.0165,-0.0198,-0.0236,-0.0245,-0.0251,-0.0263,-0.0227,-0.0264,-0.026,-0.0233,-0.0204,-0.0192,-0.0181,-0.0319,-0.032,-0.032,0,0,0.0144,0.0115,0.0096,0.0072,0.003,0.0001,-0.0001,-0.0051,-0.0063,-0.0076,-0.012,-0.0136,-0.0177,-0.0196,-0.0214,-0.0186,-0.0201,-0.0208,-0.0147,-0.0118,-0.0107,-0.0097,-0.0074,-0.0062,-0.0204,-0.0204,-0.0204,0,0.0178,0.014,0.0097,0.0078,0.0066,0.002,0.0011,-0.0001,-0.0044,-0.0039,-0.0072,-0.0109,-0.0149,-0.0144,-0.0146,-0.0171,-0.0158,-0.0169,-0.0108,-0.0098,-0.0089,-0.0068,-0.0055,-0.0201,-0.0201,-0.0201,-0.0202,0,0.018,0.0163,0.0161,0.0109,0.0101,0.0091,0.006,0.006,0.0037,0.0017,0.002,-0.0023,-0.004,-0.0067,-0.0102,-0.0062,-0.0075,-0.0105,-0.0119,-0.0072,-0.0053,-0.0042,-0.0196,-0.0197,-0.0198,-0.0199,0,0,0.0197,0.0164,0.0159,0.0153,0.0115,0.0109,0.0119,0.0112,0.0134,0.0101,0.0134,0.0084,0.0072,0.0055,0.0014,0.0032,0.009,-0.0004,-0.0004,0.0031,0.0159,0.0125,0.0134,0.0072,0.0075,0.0077,0.0144,0,0.0201,0.0188,0.0168,0.0171,0.0161,0.0148,0.0166,0.0167,0.0166,0.0193,0.0174,0.0182,0.0116,0.0116,0.0126,0.0107,0.0125,0.0075,0.01,0.0101,0.0075,0.0148,0.0126,0.0183,0.0156,0.0157,0.0159,0,0.0183,0.018,0.0185,0.0201,0.0199,0.0205,0.0239,0.0251,0.0286,0.0293,0.0311,0.0298,0.0328,0.026,0.0282,0.0256,0.0221,0.0198,0.0199,0.0161,0.009,0.0131,0.0204,0.0083,0.0176,0.0175,0.0174,0,0.0192,0.0189,0.0202,0.02,0.0212,0.0233,0.0248,0.0279,0.0318,0.0372,0.0413,0.0431,0.0463,0.0438,0.0389,0.0346,0.0416,0.0346,0.0283,0.0279,0.0265,0.0256,0.0237,0.0367,0.0367,0.0366,0.0366,0,0.0188,0.0198,0.0211,0.0215,0.0254,0.0259,0.0315,0.0338,0.0403,0.0478,0.0474,0.055,0.0513,0.0537,0.0463,0.0433,0.0478,0.0329,0.031,0.0282,0.0275,0.0169,0.0104,0.0369,0.0368,0.0368,0.0368,0,0.0192,0.0194,0.0212,0.024,0.0254,0.0284,0.0353,0.0408,0.046,0.0569,0.06,0.0672,0.0714,0.066,0.0641,0.054,0.0436,0.046,0.043,0.0406,0.0204,0.0144,0.0159,0.0106,0.0412,0.0412,0.0412,0,0.0198,0.0201,0.0233,0.0256,0.027,0.0318,0.0367,0.0427,0.0502,0.065,0.0722,0.0801,0.0881,0.0845,0.0697,0.0592,0.0462,0.046,0.0361,0.0225,0.0144,0.0111,0.0062,0.0365,0.0364,0.0364,0.0363,0,0.0211,0.0217,0.0237,0.0284,0.033,0.0394,0.0473,0.0543,0.065,0.0761,0.0929,0.1012,0.0985,0.0906,0.074,0.0629,0.0373,0.0444,0.0325,0.0139,0.0087,0.0014,0.0278,0.036,0.036,0.036,0.036,0.0361,0.0237,0.0247,0.0275,0.0325,0.038,0.048,0.0552,0.0666,0.0811,0.1,0.1066,0.1208,0.1045,0.0835,0.0678,0.0329,0.035,0.0195,0.0146,0.0137,0.0049,0.0302,0.0337,0.0337,0.0337,0.0337,0.0337,0,0.0291,0.0293,0.0324,0.0391,0.0464,0.0492,0.0636,0.0734,0.0921,0.109,0.1238,0.1234,0.1009,0.0741,0.0299,0.0069,-0.0016,-0.0059,-0.0118,-0.0147,0.0099,0.0056,0.0006,0.0006,0.0006,0.0006,0.0006,0.0006,0.0324,0.0354,0.0359,0.0464,0.0514,0.0636,0.0725,0.0878,0.1017,0.1224,0.1316,0.1375,0.1147,0.0427,-0.0095,-0.0217,-0.0366,-0.0375,-0.0444,-0.0311,-0.0291,-0.0273,-0.033,-0.046,-0.046,-0.0678,-0.068,-0.0682]}],[{"header":{"parameterUnit":"m.s-1","parameterCategory":2,"la1":30.2991,"la2":30.254,"lo1":-89.0895,"lo2":-89.0444,"dx":0.0017,"dy":0.0017,"nx":28,"ny":28,"refTime":"2022-12-02T09:00:00:Z","depth":"2","parameterNumber":2,"parameterNumberName":"U-component_of_CURRENTS"},"data":[0,0,0,0,0,0,0,0,0,0,0,0,0,0,0,0,0,0,0,0,0,0,0,0,0,0,0,0,0,0,0,0,0,0,0,0,0,0,0,0,0,0,0,0,0,0,0,0,0,0,0,0,0,0,0,0,0,0,0.1756,0.1756,0,0.178,0.1781,0.1781,0.1792,0.1792,0.1791,0.1791,0.1811,0.1812,0.1813,0,0,0,0,0,0,0,0,0,0,0,0,0,0.1762,0.1762,0.1755,0.1756,0.1756,0.178,0.1781,0.1781,0.1792,0.1792,0.1791,0.1791,0.1811,0.1812,0.1813,0,0,0,0,0,0,0,0,0,0,0,0,0,0.1772,0.1762,0.1755,0.1763,0.1764,0.178,0.1781,0.1781,0.1792,0.1792,0.1791,0.1791,0.1811,0.1812,0.1813,0.1824,0,0,0.1816,0.1816,0,0,0,0,0,0,0,0,0.1771,0.1772,0.1762,0.1762,0.1763,0.1781,0.179,0.1795,0.1792,0.1783,0.1791,0.1791,0.18,0.1802,0.1809,0.1825,0.1826,0.1816,0.1817,0.1817,0.1817,0,0,0,0,0,0,0,0.1771,0.1771,0.1767,0.1762,0.1763,0.178,0.1781,0.1792,0.1794,0.1784,0.1784,0.1785,0.1801,0.1808,0.181,0.1827,0.1816,0.1817,0.1817,0.1818,0.1865,0.1865,0,0,0,0,0,0,0.1762,0.177,0.1766,0.1767,0.1765,0.178,0.1781,0.1777,0.1794,0.1796,0.1785,0.1785,0.1807,0.1809,0.1811,0.1859,0.1817,0.1818,0.1819,0.1864,0.1865,0.1865,0,0,0,0,0,0,0.1762,0.1762,0.1765,0.1769,0.177,0.178,0.1776,0.1778,0.1785,0.1794,0.1796,0.1789,0.1807,0.1809,0.1832,0.1859,0.1818,0.1819,0.1863,0.1864,0.1865,0.1935,0,0,0,0,0,0,0.1762,0.1761,0.1764,0.1768,0.1769,0.1785,0.1776,0.1778,0.1785,0.1785,0.1799,0.1801,0.1807,0.1831,0.1833,0.1859,0.182,0.1863,0.1864,0.1865,0.1932,0.1938,0.1944,0,0,0,0,0,0.1762,0.1771,0.1764,0.1764,0.177,0.1785,0.1789,0.1796,0.1785,0.1799,0.1808,0.18,0.1839,0.1833,0.1835,0.1862,0.1862,0.1863,0.1865,0.1929,0.1937,0.1943,0,0,0,0,0,0,0.1749,0.1773,0.1765,0.1771,0.1779,0.1787,0.1804,0.1796,0.1813,0.1812,0.1814,0.1818,0.185,0.1839,0.1831,0.1876,0.1847,0.1849,0.1895,0.1902,0.1908,0.1913,0.1821,0,0,0,0,0,0.1751,0.1787,0.1781,0.1791,0.1794,0.1795,0.1803,0.1802,0.1812,0.1819,0.183,0.1838,0.1858,0.1866,0.1881,0.1904,0.1902,0.1919,0.1925,0.193,0.1935,0.1968,0.1978,0.187,0.187,0.187,0,0,0.175,0.1768,0.1785,0.1796,0.1804,0.1815,0.1801,0.1814,0.1827,0.1819,0.185,0.1863,0.1868,0.1905,0.1916,0.1899,0.1957,0.1932,0.1937,0.1938,0.1971,0.1981,0.1991,0.1871,0.1871,0.1871,0,0,0.1778,0.1777,0.1818,0.1825,0.1839,0.1837,0.1838,0.1845,0.1854,0.1877,0.1882,0.1914,0.1927,0.1955,0.1964,0.2006,0.199,0.1999,0.2034,0.2067,0.2076,0.2085,0.2087,0.2095,0.1998,0.1998,0.1998,0,0.1774,0.1807,0.1828,0.1855,0.1859,0.1845,0.1859,0.187,0.1886,0.1902,0.1893,0.1947,0.1957,0.201,0.2028,0.2024,0.2022,0.2011,0.2077,0.2085,0.2092,0.2092,0.21,0.2002,0.2001,0.2001,0.2001,0,0.1835,0.1844,0.1864,0.1898,0.1908,0.1917,0.1919,0.1935,0.1933,0.1946,0.1996,0.2021,0.2055,0.2062,0.2059,0.2119,0.2093,0.2086,0.2064,0.2108,0.2104,0.2111,0.2007,0.2006,0.2005,0.2004,0,0,0.1853,0.19,0.1902,0.1908,0.1923,0.1931,0.1958,0.1979,0.1998,0.2026,0.2064,0.2115,0.2131,0.2142,0.2152,0.2177,0.2232,0.2152,0.2152,0.2162,0.2281,0.219,0.2189,0.2236,0.2238,0.2239,0.2255,0,0.1883,0.1933,0.1952,0.1972,0.1978,0.1977,0.2002,0.2023,0.204,0.2078,0.2115,0.2157,0.216,0.2181,0.2217,0.2231,0.2255,0.2227,0.2229,0.2229,0.2151,0.2196,0.2013,0.2005,0.2262,0.2263,0.2264,0,0.1932,0.195,0.198,0.1991,0.1996,0.201,0.2036,0.2057,0.2107,0.2127,0.2183,0.2205,0.2272,0.2252,0.2319,0.2298,0.2298,0.2298,0.2298,0.2194,0.2152,0.2003,0.2008,0.2275,0.2274,0.2273,0.2273,0,0.1933,0.1964,0.1985,0.1989,0.2006,0.2022,0.2035,0.2076,0.2094,0.2162,0.2191,0.2265,0.2305,0.2333,0.2348,0.2337,0.2391,0.2378,0.2294,0.2286,0.212,0.2094,0.2417,0.2417,0.2417,0.2417,0.2417,0,0.195,0.1956,0.1986,0.1987,0.2,0.2024,0.205,0.2075,0.2122,0.2155,0.2222,0.2264,0.2328,0.2364,0.2366,0.2352,0.2415,0.2306,0.2293,0.2135,0.2112,0.2337,0.2327,0.2417,0.2417,0.2417,0.2417,0,0.1932,0.1962,0.1966,0.1989,0.1996,0.2003,0.2033,0.2056,0.2112,0.2158,0.2182,0.2274,0.2332,0.2369,0.2409,0.2367,0.236,0.2334,0.2129,0.209,0.2226,0.222,0.2247,0.2244,0.2242,0.224,0.2238,0,0.1933,0.1934,0.195,0.1953,0.1959,0.1976,0.1989,0.2037,0.2063,0.2157,0.2179,0.2261,0.2288,0.2312,0.227,0.2244,0.2322,0.204,0.1991,0.2229,0.2213,0.2211,0.2208,0.1796,0.1791,0.1787,0.1783,0,0.1895,0.1901,0.1903,0.1908,0.1922,0.1934,0.1962,0.1976,0.2043,0.2074,0.2123,0.2146,0.218,0.2073,0.204,0.2,0.203,0.1951,0.227,0.1864,0.1804,0.1788,0.1801,0.1745,0.1749,0.1752,0.1754,0.1756,0.1854,0.1847,0.1855,0.1853,0.1867,0.1881,0.1876,0.1917,0.1928,0.1919,0.1986,0.1926,0.1904,0.1757,0.1707,0.1679,0.1814,0.1715,0.1728,0.1746,0.1688,0.1627,0.1522,0.1524,0.1526,0.1528,0.153,0,0.1772,0.179,0.1798,0.1795,0.1785,0.1817,0.1842,0.1828,0.1815,0.1755,0.1723,0.1487,0.1405,0.1435,0.1328,0.1303,0.1296,0.1257,0.1242,0.128,0.1313,0.1233,0.0947,0.0946,0.0944,0.0943,0,0,0.1724,0.1727,0.1736,0.1707,0.1708,0.168,0.1682,0.1667,0.1624,0.144,0.1308,0.128,0.1342,0.11,0.1075,0.1013,0.114,0.0967,0.143,0.1449,0.1481,0.1567,0.1485,0,0,0,0,0]},{"header":{"parameterUnit":"m.s-1","parameterCategory":2,"la1":30.2991,"la2":30.254,"lo1":-89.0895,"lo2":-89.0444,"dx":0.0017,"dy":0.0017,"nx":28,"ny":28,"refTime":"2022-12-02T09:00:00:Z","depth":"2","parameterNumber":3,"parameterNumberName":"V-component_of_CURRENTS"},"data":[0,0,0,0,0,0,0,0,0,0,0,0,0,0,0,0,0,0,0,0,0,0,0,0,0,0,0,0,0,0,0,0,0,0,0,0,0,0,0,0,0,0,0,0,0,0,0,0,0,0,0,0,0,0,0,0,0,0,-0.0246,-0.0246,0,-0.0291,-0.0292,-0.0293,-0.0344,-0.0344,-0.0345,-0.0345,-0.0446,-0.0448,-0.0451,0,0,0,0,0,0,0,0,0,0,0,0,0,-0.0169,-0.0171,-0.0246,-0.0246,-0.0247,-0.0291,-0.0292,-0.0293,-0.0343,-0.0344,-0.0345,-0.0346,-0.0446,-0.0448,-0.0451,0,0,0,0,0,0,0,0,0,0,0,0,0,-0.0209,-0.0171,-0.0246,-0.0276,-0.028,-0.0291,-0.0292,-0.0293,-0.0343,-0.0344,-0.0345,-0.0346,-0.0445,-0.0448,-0.0451,-0.0452,0,0,-0.0461,-0.0462,0,0,0,0,0,0,0,0,-0.0206,-0.0212,-0.0272,-0.0274,-0.0278,-0.0312,-0.0302,-0.0348,-0.0343,-0.032,-0.0345,-0.0346,-0.0405,-0.0411,-0.0419,-0.0456,-0.0461,-0.0461,-0.0463,-0.0464,-0.0465,0,0,0,0,0,0,0,-0.0204,-0.021,-0.0265,-0.0272,-0.0276,-0.0276,-0.0283,-0.0311,-0.0359,-0.0322,-0.0326,-0.0329,-0.0407,-0.0416,-0.0422,-0.0462,-0.0461,-0.0464,-0.0466,-0.0467,-0.052,-0.0519,0,0,0,0,0,0,-0.0197,-0.0207,-0.0264,-0.0266,-0.0242,-0.0277,-0.0285,-0.0301,-0.0357,-0.0366,-0.0328,-0.0331,-0.041,-0.0418,-0.0426,-0.0429,-0.0464,-0.0467,-0.0469,-0.052,-0.052,-0.0519,0,0,0,0,0,0,-0.0195,-0.0202,-0.0262,-0.0236,-0.0244,-0.0277,-0.0295,-0.0301,-0.031,-0.0361,-0.0371,-0.0329,-0.0411,-0.0421,-0.0448,-0.0433,-0.0469,-0.0472,-0.0521,-0.052,-0.052,-0.0436,0,0,0,0,0,0,-0.0193,-0.0201,-0.0206,-0.0236,-0.0245,-0.0263,-0.0294,-0.0301,-0.0309,-0.0314,-0.0365,-0.0376,-0.0412,-0.0443,-0.0451,-0.0438,-0.0474,-0.0522,-0.0521,-0.052,-0.0439,-0.0432,-0.0427,0,0,0,0,0,-0.019,-0.0198,-0.0206,-0.0213,-0.0253,-0.0262,-0.0266,-0.0294,-0.0308,-0.0306,-0.0343,-0.0374,-0.0443,-0.0445,-0.0454,-0.0442,-0.0522,-0.0521,-0.052,-0.0442,-0.0434,-0.0427,0,0,0,0,0,0,-0.018,-0.0205,-0.0215,-0.0234,-0.0241,-0.027,-0.0268,-0.0286,-0.0311,-0.0316,-0.0368,-0.038,-0.0401,-0.0431,-0.0432,-0.0456,-0.0488,-0.0488,-0.0425,-0.0418,-0.0411,-0.0377,-0.0477,0,0,0,0,0,-0.0175,-0.0185,-0.0204,-0.0218,-0.0214,-0.0236,-0.0242,-0.0259,-0.0285,-0.0297,-0.0333,-0.0371,-0.0402,-0.0417,-0.0452,-0.046,-0.0477,-0.046,-0.0453,-0.0447,-0.0426,-0.0436,-0.0428,-0.0516,-0.0516,-0.0516,0,0,-0.0182,-0.0191,-0.0202,-0.0215,-0.022,-0.0214,-0.0243,-0.0244,-0.0244,-0.0304,-0.0315,-0.0353,-0.0401,-0.0415,-0.0426,-0.0439,-0.0434,-0.0446,-0.0441,-0.0423,-0.0434,-0.0425,-0.0418,-0.0515,-0.0515,-0.0515,0,0,-0.0171,-0.0195,-0.0182,-0.0183,-0.018,-0.0194,-0.019,-0.0208,-0.0217,-0.023,-0.0274,-0.0293,-0.0346,-0.0367,-0.0388,-0.0364,-0.0403,-0.0383,-0.0318,-0.0328,-0.032,-0.0313,-0.0329,-0.0324,-0.0375,-0.0375,-0.0375,0,-0.0171,-0.0166,-0.0179,-0.0157,-0.0158,-0.0181,-0.0164,-0.0173,-0.0202,-0.0199,-0.0226,-0.0276,-0.0318,-0.0322,-0.0316,-0.0347,-0.0362,-0.0342,-0.0317,-0.0311,-0.0306,-0.0323,-0.0319,-0.0371,-0.0371,-0.0372,-0.0372,0,-0.0143,-0.0137,-0.0127,-0.0112,-0.0112,-0.0106,-0.0114,-0.0112,-0.0129,-0.0141,-0.0147,-0.0193,-0.0218,-0.0237,-0.0271,-0.0251,-0.0279,-0.031,-0.033,-0.0291,-0.0313,-0.031,-0.0365,-0.0366,-0.0368,-0.0369,0,0,-0.0148,-0.0114,-0.0109,-0.0088,-0.009,-0.0085,-0.0072,-0.0064,-0.0041,-0.007,-0.0047,-0.0091,-0.0105,-0.0127,-0.0165,-0.0169,-0.0152,-0.0213,-0.0216,-0.0217,-0.0175,-0.0208,-0.0209,-0.018,-0.0179,-0.0178,-0.0206,0,-0.0117,-0.0068,-0.0065,-0.0032,-0.0009,-0.0022,-0.0006,-0.0003,-0.0005,0.0012,-0.0016,-0.0018,-0.0066,-0.0068,-0.0077,-0.0135,-0.014,-0.0141,-0.0222,-0.0224,-0.0249,-0.0205,-0.0177,-0.0201,-0.0204,-0.0204,-0.0203,0,-0.008,-0.0054,-0.0009,0.0023,0.0034,0.0044,0.0073,0.0087,0.0104,0.0108,0.0113,0.0086,0.0083,0.0033,-0.0019,-0.0018,-0.0079,-0.0127,-0.013,-0.0183,-0.0251,-0.0242,-0.0197,-0.0199,-0.02,-0.02,-0.02,0,-0.0056,-0.0013,0.0023,0.0029,0.006,0.008,0.0092,0.0116,0.0149,0.0177,0.0207,0.0184,0.0182,0.0117,0.0022,0.0005,-0.0043,-0.0088,-0.0175,-0.0179,-0.018,-0.0186,-0.0118,-0.0118,-0.0117,-0.0117,-0.0117,0,-0.0022,0.0011,0.0038,0.0059,0.01,0.0113,0.0166,0.0184,0.0229,0.0287,0.0265,0.0305,0.0205,0.0162,0.0063,-0.0039,-0.0014,-0.0144,-0.0179,-0.0153,-0.0156,-0.0177,-0.0184,-0.0119,-0.0118,-0.0118,-0.0118,0,0.0015,0.0032,0.0073,0.0106,0.0118,0.0148,0.0204,0.0254,0.0295,0.0374,0.0391,0.0395,0.035,0.0239,0.0126,0.0017,-0.0086,-0.0135,-0.0101,-0.0131,-0.0227,-0.0229,-0.0223,-0.0224,-0.0225,-0.0226,-0.0226,0,0.0046,0.007,0.0101,0.0122,0.014,0.0185,0.0227,0.0276,0.0339,0.0436,0.0483,0.0471,0.0463,0.0287,0.0114,-0.0057,-0.0084,-0.0165,-0.0194,-0.0198,-0.0233,-0.0233,-0.0234,-0.0167,-0.0167,-0.0167,-0.0167,0,0.0092,0.0096,0.0121,0.016,0.02,0.0256,0.0322,0.0381,0.0466,0.0534,0.0617,0.0617,0.0481,0.0322,0.0086,-0.003,-0.0135,-0.0175,-0.0169,-0.0151,-0.0149,-0.0183,-0.0184,-0.0168,-0.0168,-0.0168,-0.0168,-0.0168,0.0122,0.0134,0.0159,0.0199,0.0247,0.0331,0.0389,0.0475,0.0574,0.068,0.0682,0.0674,0.0508,0.0206,0.0041,-0.0135,-0.0145,-0.0229,-0.0226,-0.0224,-0.0218,-0.0219,-0.0251,-0.0251,-0.0251,-0.0251,-0.0252,0,0.0157,0.0169,0.02,0.0253,0.0313,0.0341,0.0459,0.051,0.0629,0.0701,0.0742,0.0576,0.0412,0.0237,-0.002,-0.0195,-0.0194,-0.0245,-0.02,-0.0198,-0.0197,-0.0188,-0.0213,-0.0214,-0.0214,-0.0214,0,0,0.0185,0.0197,0.0205,0.0297,0.0348,0.0447,0.0519,0.0579,0.0637,0.0694,0.0694,0.0643,0.044,0.0253,0.0057,-0.007,-0.0101,-0.0101,-0.0117,-0.0038,-0.0034,-0.0174,-0.0157,0,0,0,0,0]}],[{"header":{"parameterUnit":"m.s-1","parameterCategory":2,"la1":30.2991,"la2":30.254,"lo1":-89.0895,"lo2":-89.0444,"dx":0.0017,"dy":0.0017,"nx":28,"ny":28,"refTime":"2022-12-02T09:00:00:Z","depth":"4","parameterNumber":2,"parameterNumberName":"U-component_of_CURRENTS"},"data":[0,0,0,0,0,0,0,0,0,0,0,0,0,0,0,0,0,0,0,0,0,0,0,0,0,0,0,0,0,0,0,0,0,0,0,0,0,0,0,0,0,0,0,0,0,0,0,0,0,0,0,0,0,0,0,0,0,0,0.0201,0.0202,0,0.0268,0.0268,0.0269,0.0362,0.0364,0.0365,0.0367,0.0494,0.0496,0.0497,0,0,0,0,0,0,0,0,0,0,0,0,0,0.0212,0.0211,0.0201,0.0202,0.0203,0.0268,0.0268,0.0269,0.0361,0.0364,0.0366,0.0368,0.0493,0.0495,0.0497,0,0,0,0,0,0,0,0,0,0,0,0,0,0.0233,0.0211,0.0201,0.0259,0.0265,0.0268,0.0268,0.0269,0.0361,0.0364,0.0366,0.0369,0.0493,0.0495,0.0498,0.046,0,0,0.0506,0.0507,0,0,0,0,0,0,0,0,0.0232,0.0233,0.0249,0.0255,0.0262,0.0311,0.0319,0.0337,0.036,0.0322,0.0367,0.037,0.0438,0.0445,0.0447,0.0466,0.0471,0.0506,0.0507,0.0508,0.0509,0,0,0,0,0,0,0,0.023,0.0231,0.0225,0.025,0.0258,0.0302,0.0307,0.0323,0.0363,0.0325,0.0333,0.0343,0.0442,0.0445,0.0451,0.0473,0.0506,0.0508,0.051,0.0511,0.0633,0.0635,0,0,0,0,0,0,0.0221,0.0228,0.0223,0.0227,0.0256,0.0299,0.0305,0.0291,0.0362,0.0376,0.0341,0.0347,0.0439,0.0448,0.0456,0.0548,0.0508,0.0511,0.0512,0.0631,0.0633,0.0635,0,0,0,0,0,0,0.022,0.0218,0.022,0.0234,0.0237,0.0296,0.0279,0.0291,0.0342,0.0374,0.0389,0.0387,0.0441,0.0453,0.0503,0.0549,0.0512,0.0514,0.0629,0.0632,0.0634,0.0648,0,0,0,0,0,0,0.0219,0.0217,0.0212,0.0231,0.0236,0.0247,0.0278,0.029,0.0342,0.0353,0.0416,0.0428,0.0444,0.0499,0.0505,0.0552,0.0516,0.0627,0.063,0.0634,0.0645,0.065,0.0655,0,0,0,0,0,0.0219,0.02,0.021,0.0211,0.0223,0.0248,0.0254,0.0305,0.0342,0.0361,0.0406,0.0429,0.0526,0.0501,0.0509,0.0558,0.0626,0.063,0.0633,0.0643,0.0649,0.0655,0,0,0,0,0,0,0.0209,0.0208,0.022,0.0203,0.0236,0.0265,0.0288,0.0323,0.037,0.0399,0.043,0.0444,0.0505,0.0527,0.05,0.0605,0.0587,0.0593,0.0592,0.0599,0.0603,0.0611,0.0518,0,0,0,0,0,0.0198,0.0176,0.0204,0.0191,0.0214,0.0258,0.028,0.032,0.0359,0.0386,0.0436,0.0488,0.0515,0.0555,0.058,0.063,0.0645,0.0675,0.068,0.0684,0.0697,0.0745,0.0755,0.0648,0.0648,0.0648,0,0,0.0186,0.0186,0.0173,0.0187,0.0219,0.0253,0.0279,0.0328,0.0376,0.0389,0.0479,0.0497,0.0528,0.0582,0.0615,0.0617,0.0721,0.0689,0.0691,0.0703,0.075,0.076,0.0769,0.0651,0.065,0.065,0,0,0.0165,0.0162,0.0155,0.0183,0.0237,0.0267,0.0292,0.0355,0.0412,0.0472,0.0499,0.0543,0.0608,0.0636,0.0653,0.0702,0.073,0.0733,0.0782,0.0828,0.0837,0.0845,0.0864,0.0874,0.0753,0.0753,0.0753,0,0.0169,0.0152,0.0162,0.0184,0.0221,0.028,0.0321,0.0369,0.0448,0.0496,0.0515,0.0608,0.0629,0.0686,0.0709,0.0713,0.0741,0.075,0.0833,0.0841,0.0849,0.0867,0.0878,0.0755,0.0754,0.0754,0.0754,0,0.0145,0.0159,0.0168,0.0206,0.0245,0.0288,0.0363,0.0429,0.0502,0.0551,0.0641,0.0666,0.0732,0.0744,0.0741,0.0819,0.0819,0.0815,0.0811,0.086,0.0877,0.0887,0.0756,0.0756,0.0755,0.0755,0,0,0.0124,0.0145,0.0163,0.0193,0.0272,0.0304,0.0392,0.0482,0.0556,0.0633,0.0717,0.0763,0.0801,0.0824,0.0841,0.088,0.0942,0.0887,0.0889,0.0895,0.1043,0.0953,0.0955,0.0963,0.0966,0.0968,0.1025,0,0.0133,0.016,0.0179,0.0244,0.0282,0.0358,0.0427,0.0516,0.0609,0.0702,0.0754,0.0832,0.083,0.0874,0.0914,0.0934,0.0975,0.0926,0.1005,0.1007,0.0912,0.0966,0.0975,0.1033,0.1036,0.1038,0.1039,0,0.0135,0.0156,0.0209,0.0277,0.0305,0.0366,0.0506,0.058,0.0706,0.0773,0.0864,0.0907,0.0985,0.097,0.1056,0.1034,0.1052,0.1055,0.1058,0.098,0.0937,0.098,0.1058,0.1057,0.1055,0.1054,0.1053,0,0.013,0.019,0.0233,0.0258,0.034,0.0414,0.0494,0.0626,0.069,0.0852,0.0903,0.1,0.1062,0.1107,0.1131,0.1116,0.1199,0.1176,0.1106,0.1099,0.1154,0.1145,0.1237,0.1237,0.1237,0.1237,0.1237,0,0.0129,0.017,0.0248,0.0274,0.0359,0.0441,0.0553,0.0653,0.0767,0.0841,0.0964,0.1015,0.1107,0.1156,0.1166,0.1171,0.1241,0.1125,0.1118,0.1156,0.1147,0.116,0.115,0.1239,0.1239,0.1238,0.1238,0,0.0105,0.0148,0.0197,0.0303,0.0357,0.0434,0.0561,0.062,0.0769,0.0874,0.0924,0.1044,0.1128,0.1181,0.1244,0.1211,0.122,0.1201,0.1236,0.1227,0.1077,0.1068,0.1135,0.1133,0.113,0.1129,0.1127,0,0.009,0.011,0.0213,0.0255,0.0318,0.0432,0.0495,0.0625,0.0683,0.087,0.0898,0.1027,0.1099,0.112,0.1176,0.1204,0.1183,0.1187,0.1133,0.1086,0.1072,0.1066,0.1059,0.1124,0.1123,0.1123,0.1122,0,0.0057,0.0094,0.0132,0.0211,0.0292,0.0342,0.0463,0.0486,0.0645,0.0758,0.0865,0.0935,0.1018,0.1062,0.1105,0.1111,0.1186,0.1165,0.1169,0.1118,0.1073,0.106,0.1056,0.1115,0.1116,0.1117,0.1117,0,0.0051,0.0044,0.0091,0.0165,0.0235,0.0274,0.0329,0.0416,0.0483,0.0707,0.0725,0.0882,0.0994,0.1012,0.1037,0.1057,0.1033,0.0997,0.1009,0.1017,0.0952,0.0876,0.0865,0,0,0,0,0,0.0056,0.0015,0.0045,0.0106,0.016,0.0205,0.0308,0.0358,0.0511,0.0562,0.0653,0.0735,0.0828,0.0877,0.0873,0.0958,0.1015,0.0947,0.0971,0.1075,0.1083,0.1017,0,0,0,0,0,0,0.0053,0.0032,0.0015,0.0048,0.0079,0.0122,0.0183,0.0278,0.0313,0.0485,0.0524,0.067,0.0744,0.082,0.0851,0.087,0.0866,0.1034,0.1032,0.107,0.1077,0.1084,0.1019,0,0,0,0,0]},{"header":{"parameterUnit":"m.s-1","parameterCategory":2,"la1":30.2991,"la2":30.254,"lo1":-89.0895,"lo2":-89.0444,"dx":0.0017,"dy":0.0017,"nx":28,"ny":28,"refTime":"2022-12-02T09:00:00:Z","depth":"4","parameterNumber":3,"parameterNumberName":"V-component_of_CURRENTS"},"data":[0,0,0,0,0,0,0,0,0,0,0,0,0,0,0,0,0,0,0,0,0,0,0,0,0,0,0,0,0,0,0,0,0,0,0,0,0,0,0,0,0,0,0,0,0,0,0,0,0,0,0,0,0,0,0,0,0,0,0.0304,0.0304,0,0.0278,0.0278,0.0277,0.0285,0.0286,0.0287,0.0287,0.0182,0.0178,0.0175,0,0,0,0,0,0,0,0,0,0,0,0,0,0.0255,0.0257,0.0304,0.0304,0.0304,0.0278,0.0278,0.0277,0.0285,0.0286,0.0287,0.0288,0.0183,0.0179,0.0174,0,0,0,0,0,0,0,0,0,0,0,0,0,0.0255,0.0257,0.0304,0.0307,0.0307,0.0278,0.0278,0.0277,0.0285,0.0286,0.0287,0.0288,0.0184,0.0179,0.0174,0.0117,0,0,0.0158,0.0155,0,0,0,0,0,0,0,0,0.0255,0.0257,0.0306,0.0307,0.0307,0.0289,0.0222,0.022,0.0284,0.029,0.0287,0.0289,0.0211,0.0204,0.0193,0.0112,0.0107,0.0157,0.0154,0.0152,0.015,0,0,0,0,0,0,0,0.0256,0.0257,0.0291,0.0306,0.0307,0.0274,0.0276,0.0221,0.024,0.029,0.0291,0.0292,0.021,0.0198,0.019,0.0106,0.0157,0.0152,0.0149,0.0147,0.0019,0.0019,0,0,0,0,0,0,0.0269,0.0258,0.0292,0.029,0.0287,0.0274,0.0276,0.0291,0.0243,0.0238,0.0291,0.0293,0.0207,0.0197,0.0187,0.0154,0.0152,0.0147,0.0143,0.0019,0.0019,0.0019,0,0,0,0,0,0,0.0268,0.0273,0.0293,0.0275,0.0276,0.0275,0.029,0.029,0.0286,0.0245,0.0239,0.029,0.0207,0.0194,0.0154,0.0149,0.0144,0.0139,0.0019,0.0019,0.0019,0.0064,0,0,0,0,0,0,0.0267,0.0273,0.0284,0.0276,0.0277,0.0287,0.0289,0.0288,0.0286,0.0288,0.0241,0.0233,0.0207,0.0163,0.0149,0.0141,0.0135,0.0019,0.0019,0.0019,0.0063,0.0066,0.0068,0,0,0,0,0,0.0266,0.0282,0.0285,0.0288,0.0294,0.0287,0.0284,0.0284,0.0285,0.0285,0.0258,0.0235,0.0151,0.0158,0.0142,0.0133,0.002,0.0019,0.0019,0.0062,0.0065,0.0068,0,0,0,0,0,0,0.0253,0.0284,0.0287,0.0309,0.0302,0.029,0.03,0.0284,0.0262,0.0263,0.0224,0.0213,0.0181,0.0145,0.0154,0.0096,0.0083,0.008,0.0121,0.0124,0.0126,0.0126,0.0131,0,0,0,0,0,0.0259,0.0293,0.0292,0.0309,0.0317,0.0304,0.03,0.0291,0.0273,0.0265,0.0232,0.0195,0.0162,0.0137,0.0102,0.0057,0.0022,0.0043,0.0045,0.0047,0.0037,-0.0016,-0.002,0.0017,0.0017,0.0017,0,0,0.0255,0.028,0.0294,0.031,0.0316,0.0312,0.0306,0.0305,0.0289,0.0252,0.0228,0.02,0.0154,0.012,0.0101,0.0091,0.0023,0.0047,0.0049,0.0037,-0.0017,-0.0021,-0.0024,0.0017,0.0017,0.0017,0,0,0.0281,0.0295,0.0339,0.0333,0.0342,0.0322,0.0323,0.0306,0.0298,0.0261,0.0241,0.021,0.015,0.0122,0.0098,0.0084,0.0042,0.0075,0.0076,0.0026,0.0022,0.0019,-0.0011,-0.0018,0.007,0.007,0.0071,0,0.0274,0.0323,0.034,0.0367,0.0356,0.033,0.0332,0.0313,0.0275,0.0258,0.0261,0.0181,0.015,0.0103,0.0109,0.0089,0.0059,0.0073,0.0029,0.0025,0.002,-0.001,-0.0018,0.0073,0.0072,0.0072,0.0072,0,0.0333,0.0352,0.0374,0.04,0.0384,0.0379,0.035,0.0325,0.0301,0.0273,0.0232,0.0193,0.0143,0.0135,0.0117,0.0069,0.0059,0.0045,0.0024,0.0019,-0.0012,-0.0021,0.0076,0.0075,0.0074,0.0074,0,0,0.0363,0.0408,0.0417,0.0418,0.0392,0.0383,0.0353,0.0315,0.0292,0.0255,0.0225,0.018,0.0158,0.0129,0.0102,0.0061,0.0018,0.0041,0.0038,0.0016,-0.0084,-0.0058,-0.0066,-0.0005,-0.0007,-0.0008,-0.0086,0,0.0399,0.0457,0.0457,0.0452,0.0458,0.0404,0.037,0.0322,0.0286,0.0247,0.0204,0.0171,0.0156,0.0138,0.0092,0.0036,-0.0007,0.0041,-0.0081,-0.0084,-0.0058,-0.0077,-0.0014,-0.0093,-0.0095,-0.0096,-0.0098,0,0.0452,0.048,0.0505,0.0468,0.0467,0.0442,0.0374,0.0344,0.0276,0.0249,0.0203,0.0172,0.0112,0.0105,-0.0005,0.0026,-0.003,-0.0071,-0.0076,-0.0079,-0.0077,-0.0093,-0.0115,-0.0113,-0.0112,-0.0111,-0.011,0,0.0476,0.0497,0.0516,0.0506,0.0468,0.0448,0.0414,0.0345,0.032,0.0257,0.0234,0.0156,0.0124,0.0038,-0.0036,-0.003,-0.0155,-0.0159,-0.019,-0.0188,-0.0207,-0.0203,-0.0249,-0.0249,-0.0249,-0.0249,-0.0249,0,0.0489,0.0507,0.053,0.0538,0.0514,0.0476,0.0445,0.0393,0.0338,0.0308,0.0246,0.0209,0.0104,0.0029,-0.0047,-0.0141,-0.0168,-0.0199,-0.0214,-0.0183,-0.0175,-0.0213,-0.0207,-0.0252,-0.0251,-0.025,-0.025,0,0.0489,0.0524,0.0538,0.0533,0.0529,0.0506,0.0472,0.0451,0.0395,0.0354,0.0338,0.0241,0.0144,0.0044,-0.0093,-0.0144,-0.0242,-0.027,-0.0218,-0.0227,-0.0238,-0.023,-0.0319,-0.0319,-0.0318,-0.0318,-0.0318,0,0.0491,0.0507,0.0543,0.0551,0.0548,0.0532,0.0519,0.0475,0.045,0.0375,0.0349,0.026,0.0192,0.0017,-0.0089,-0.0235,-0.0251,-0.0298,-0.0281,-0.0243,-0.0249,-0.0241,-0.0233,-0.0318,-0.0318,-0.0318,-0.0318,0,0.0465,0.0498,0.0527,0.0553,0.0559,0.0555,0.0536,0.0518,0.0465,0.0441,0.0352,0.0264,0.0155,0.0022,-0.0087,-0.0192,-0.0266,-0.0298,-0.0299,-0.0283,-0.0244,-0.0248,-0.024,-0.0318,-0.0318,-0.0318,-0.0318,0,0.0455,0.0463,0.0521,0.0525,0.0559,0.0551,0.0546,0.0512,0.0484,0.04,0.0378,0.0261,0.0192,0.0044,-0.006,-0.0155,-0.0178,-0.0205,-0.0212,-0.0213,-0.0153,-0.0085,-0.0134,0,0,0,0,0,0.0413,0.0434,0.0469,0.0489,0.0536,0.0538,0.054,0.0531,0.0497,0.044,0.0403,0.0302,0.0148,0.0072,-0.002,-0.0058,-0.0193,-0.0168,-0.0227,-0.0317,-0.0317,-0.0261,0,0,0,0,0,0,0.0389,0.0436,0.0461,0.0473,0.0477,0.0505,0.051,0.0491,0.0445,0.0406,0.032,0.0283,0.0127,0.0196,-0.0024,-0.0053,-0.0101,-0.0241,-0.0243,-0.0316,-0.0317,-0.0317,-0.026,0,0,0,0,0]}]]